Location: Peebles
(55.6412°N, 3.1714°W)
Time: 13:57:07
(UTC+01:00)

ZHUHAI-1 OVS-02 - Pass Details

Date: 29 June 2022
Orbit: 492 x 507 km, 97.2° (Epoch: 17 August)

Event Time Altitude Azimuth Distance (km) Brightness Sun altitude
Rises 23:09:16 0° 209° (SSW) 2,570 ? -6.7°
Reaches altitude 10° 23:11:58 10° 231° (SW) 1,697 ? -6.8°
Maximum altitude 23:14:19 16° 271° (W) 1,361 ? -7.0°
Drops below altitude 10° 23:16:41 10° 312° (NW) 1,713 ? -7.2°
Sets 23:19:26 0° 334° (NNW) 2,607 ? -7.3°
